Regional Weather Roundup
Issued by NWS Tiyan, Guam

Home | Current Version | Previous Version | Text Only | Print | Product List | Glossary On
Versions: 1 2 3 4 5 6 7 8 9 10 11 12 13 14 15 16 17 18 19 20 21 22 23 24 25 26 27 28 29 30 31 32 33 34 35 36 37 38 39 40 41 42 43 44 45 46 47 48 49 50
000
ASGM40 PGUM 212012
RWRGUM
WEATHER ROUNDUP FOR THE MARIANAS
NATIONAL WEATHER SERVICE TIYAN GU
600 AM CHST WED OCT 22 2014

GUZ001>004-212100-
MARIANA ISLANDS-

CITY           SKY/WX    TMP DP  RH WIND       PRES   REMARKS
GUAM AIRPORT   PTCLDY    77  73  88 CALM      29.82R
ANDERSEN AFB   CLEAR     77  72  83 NE6       29.82R
ROTA AIRPORT   PTCLDY    73  73 100 SE7       29.82
TINIAN AP      PTCLDY    77  75  94 CALM      29.78
SAIPAN AP      PTCLDY    79  75  89 E3        29.80R

$$




USA.gov is the U.S. government's official web portal to all federal, state and local government web resources and services.